GFSMA_con_sbcape_057.txt.gz
CAPE
0 0 0 104 203 188 225 67 0 0 0 0 0 139 416 466 323 116 204 1246 1597 1601 1752 1859 1304 1116 1445 1449 1089 899 1362 1013 444 466 866 837 559 687 574 725 736 446 242
0 0 2 162 119 105 62 29 8 0 0 0 0 31 50 164 338 250 121 151 1267 1578 1397 1493 1891 1759 1528 1619 1532 1152 943 738 856 870 928 1134 1185 1005 939 848 727 658 829
41 55 65 38 46 68 19 0 0 0 9 25 33 66 82 176 382 246 147 160 317 1621 1330 1818 1766 1838 2127 1993 1944 1959 1774 1411 1422 1324 1365 1430 1332 1289 1309 1123 972 1050 984
83 32 9 4 0 17 0 0 0 0 0 0 2 55 109 141 284 176 234 436 286 573 1460 2034 1364 1464 1585 2069 1975 2285 2082 1786 1492 1243 1322 1306 1053 940 1018 756 819 791 596
124 83 8 5 32 20 0 0 0 0 0 0 0 9 31 71 121 244 165 238 341 563 622 949 1462 1440 1243 1395 1254 1787 2146 2025 1546 997 930 833 571 785 434 470 554 682 348
108 63 15 6 6 81 74 12 19 7 0 0 123 451 121 112 101 85 119 293 239 372 347 248 322 505 1160 1152 1341 1132 1364 1975 1773 1138 850 451 455 422 460 464 559 655 586
24 10 0 0 7 70 96 110 67 51 26 20 54 25 8 20 18 10 49 64 147 117 238 266 247 274 248 1232 1177 987 1036 844 1233 793 489 470 617 675 572 426 368 460 493
7 21 0 0 24 30 72 133 135 59 44 23 29 0 9 0 0 0 0 24 14 90 143 127 137 96 89 127 204 734 596 531 550 653 367 390 381 318 365 520 476 438 228
53 33 90 12 48 43 67 76 88 92 56 0 0 0 0 0 0 3 5 3 2 1 9 0 1 1 1 50 159 401 359 230 267 358 228 231 231 330 330 288 250 207 201
132 82 69 86 79 119 168 107 69 32 0 0 0 0 0 0 0 0 2 0 4 1 0 4 0 0 0 0 71 201 141 213 396 291 187 241 247 316 408 390 323 299 278
79 101 73 54 46 32 68 109 115 68 0 14 0 0 0 0 0 0 2 1 1 3 4 9 13 4 4 1 30 148 102 148 206 227 306 283 281 294 240 151 151 135 113
26 50 56 39 31 0 0 0 0 2 34 0 0 0 0 0 1 0 1 3 1 3 2 3 3 2 2 16 64 54 35 12 14 40 71 77 82 78 56 36 27 26 23
47 57 46 34 17 0 0 0 0 0 0 0 0 0 0 0 0 0 0 2 2 2 2 2 3 1 1 1 16 15 17 7 2 1 1 3 4 7 7 9 10 5 3
15 10 18 8 50 9 0 0 0 0 0 0 0 0 0 0 0 0 0 0 4 5 1 2 2 2 2 4 14 12 8 5 1 0 1 4 5 7 7 4 2 6 12
5 9 3 38 21 0 0 0 0 0 0 0 0 0 0 0 0 0 0 0 0 1 2 3 2 3 2 0 4 0 3 6 8 6 5 5 3 1 1 1 0 7 11
0 0 0 4 2 0 0 0 0 0 0 0 0 0 0 0 0 0 0 0 0 0 1 2 2 3 3 3 6 0 1 3 4 4 2 1 1 1 0 0 0 12 16
0 0 0 0 0 0 0 0 0 0 0 0 0 0 0 0 1 0 0 0 0 0 0 1 2 1 1 2 0 0 0 0 0 0 0 0 0 1 0 0 3 7 6
0 0 0 0 0 0 0 0 0 0 0 0 0 0 0 0 1 1 0 0 0 0 0 0 0 1 1 0 0 0 0 0 0 0 0 0 0 0 0 0 0 0 0
0 0 0 0 0 0 0 0 0 0 0 0 0 0 0 0 0 0 0 0 0 0 0 0 1 1 1 0 0 0 0 0 0 0 0 0 0 0 0 0 0 0 0
0 0 0 0 0 0 0 0 0 0 0 0 0 0 0 0 0 0 0 0 0 0 0 0 0 0 1 1 0 0 0 0 0 0 0 0 0 0 0 0 0 0 0
0 0 0 0 0 0 0 0 0 0 0 0 0 0 0 0 0 0 0 0 0 0 0 0 0 1 1 1 0 0 0 0 0 0 0 0 0 0 0 0 0 0 0
0 0 0 0 0 0 0 0 0 0 0 0 0 0 0 0 0 0 0 0 0 0 0 0 0 0 0 0 0 0 0 0 0 0 0 0 0 0 0 0 0 0 0
9 0 0 0 0 0 0 0 0 0 0 0 0 0 0 0 0 0 0 0 0 0 0 0 0 0 0 0 0 0 0 0 0 0 0 0 0 0 0 0 0 0 0
10 0 0 0 0 0 0 0 0 0 0 0 0 0 0 0 0 0 0 0 0 0 0 0 0 0 0 0 0 0 0 0 0 0 0 0 0 0 0 0 0 0 0
28 5 0 0 0 0 0 0 0 0 0 0 0 0 0 0 0 0 0 0 0 0 0 0 0 0 0 0 0 0 0 0 0 0 0 0 0 0 0 0 0 0 0
2 10 2 0 0 0 0 0 0 0 0 0 0 0 0 0 0 0 0 0 0 0 0 0 0 0 0 0 0 0 0 0 0 0 0 0 0 0 0 0 0 0 0

GFSMA_con_sbcape_060.txt.gz
CAPE
115 32 2 161 361 427 517 351 128 60 0 0 21 96 454 546 625 496 762 1120 1664 1568 1470 1630 1455 1365 1278 1324 1201 885 822 1191 675 577 1106 734 503 326 365 682 577 354 156
2 0 0 19 231 226 302 191 121 56 23 37 0 8 112 480 791 590 394 659 1658 1699 1551 1418 1464 1438 1354 1813 1616 1293 1082 1180 1337 918 711 955 1187 1061 860 699 702 663 796
4 12 11 42 194 205 153 114 86 55 76 77 93 76 184 183 295 603 524 541 433 1302 1677 1834 1623 1938 1649 1566 1857 2197 1966 1579 1491 1287 1115 1074 1277 1126 1134 978 883 977 883
26 72 49 106 66 74 77 27 18 0 0 0 27 94 327 323 508 675 673 673 511 513 843 1728 1492 1499 1427 1596 1404 1849 2157 1968 1208 1314 1275 1345 1136 935 992 949 965 827 492
141 48 62 22 15 37 25 8 0 0 18 15 5 21 77 183 257 402 478 482 745 820 895 1233 1478 1595 1637 1492 1341 1568 1726 1694 1634 1297 1106 987 806 573 466 527 512 446 513
140 63 55 3 4 70 74 33 24 15 22 33 9 342 498 292 248 297 312 426 716 613 1018 993 841 1202 1498 1500 1441 1466 1505 1295 1063 1425 1127 927 861 589 462 492 566 613 488
52 40 41 20 5 30 115 92 139 76 57 1 116 155 34 3 7 5 74 214 312 445 564 840 906 961 986 1142 1326 1221 1041 923 1125 1021 893 501 396 347 388 423 507 467 413
32 32 23 0 0 16 54 137 262 69 30 55 197 52 75 0 0 11 7 117 101 259 330 352 488 420 414 365 462 530 747 760 568 654 520 228 222 209 206 236 355 354 306
50 87 103 51 39 65 138 158 191 214 181 144 73 92 11 0 1 8 7 7 4 6 31 49 77 71 79 369 362 914 542 275 362 423 207 170 184 159 232 296 316 398 296
219 167 77 68 82 47 46 88 58 89 67 134 51 60 0 0 0 4 11 8 6 6 10 8 6 3 0 8 409 249 213 188 269 273 157 120 115 213 395 441 262 215 219
119 126 109 100 93 85 134 116 299 119 61 99 119 31 37 1 0 0 7 9 5 2 10 8 18 24 25 38 175 239 171 233 343 371 256 285 275 228 195 156 131 122 109
69 121 97 68 63 49 73 117 102 120 133 126 31 15 28 62 2 0 9 13 6 4 3 3 4 2 15 113 129 62 42 34 19 35 80 84 53 49 44 31 35 8 3
66 84 93 104 94 89 82 60 18 1 11 13 0 18 39 0 0 0 0 8 9 8 4 3 4 3 2 8 26 21 21 5 1 0 2 3 2 4 6 6 7 17 51
21 7 41 83 132 82 51 41 0 0 0 0 0 0 9 41 0 0 1 2 8 7 4 7 3 2 1 13 15 10 12 5 3 1 1 2 4 4 3 3 3 14 7
3 17 2 64 42 19 11 20 0 0 0 0 0 1 1 3 24 0 1 16 35 2 10 6 4 4 4 5 9 6 12 4 5 4 0 3 4 3 0 2 8 7 3
0 2 3 3 0 0 0 0 0 0 0 0 0 0 1 6 45 27 18 3 0 0 7 4 12 7 2 4 6 1 8 2 3 2 2 3 2 1 2 2 14 14 15
0 0 0 2 0 0 0 0 0 0 0 0 0 0 1 1 11 30 3 1 0 0 1 6 3 4 4 0 0 0 0 1 2 0 0 1 2 0 1 5 9 10 9
0 0 0 0 0 0 0 0 0 0 0 0 0 0 1 0 2 4 2 0 0 0 1 1 1 3 3 1 0 0 0 0 0 0 0 0 2 1 0 1 0 0 0
0 0 0 0 0 0 0 0 0 0 0 0 0 0 0 0 2 1 1 0 0 0 0 1 2 3 4 3 3 0 0 0 0 0 0 0 0 0 0 0 0 0 0
0 0 0 0 0 0 0 0 0 0 0 0 0 0 0 0 0 2 2 1 0 0 1 1 2 4 4 3 2 3 0 0 0 0 0 0 0 0 0 0 0 0 0
0 0 0 0 0 0 0 0 0 0 0 0 0 1 0 0 0 0 1 1 0 0 1 2 2 3 3 4 1 0 0 0 0 0 0 0 0 0 0 0 0 0 0
0 0 0 0 0 0 0 0 0 0 0 0 0 0 0 0 0 0 0 0 0 0 1 2 2 2 1 1 0 0 0 0 0 0 0 0 0 0 0 0 0 0 0
0 0 0 0 0 0 0 0 0 0 0 0 0 0 0 0 0 0 0 0 0 0 0 0 1 0 0 0 0 0 0 0 0 0 0 0 0 0 0 0 0 0 0
3 0 0 0 0 0 0 0 0 0 0 0 0 0 0 0 0 0 0 0 0 0 0 0 0 0 0 0 0 0 0 1 2 1 0 9 3 1 0 0 0 0 0
26 0 0 0 0 0 0 0 0 0 0 0 0 0 0 0 0 0 0 0 0 0 0 0 0 0 0 0 0 0 0 3 5 4 1 4 0 9 0 0 0 0 0
0 0 0 0 1 0 0 0 0 0 0 0 0 0 0 0 0 0 0 0 0 0 0 0 0 0 0 0 0 0 0 0 0 0 0 11 5 6 28 0 0 0 0

GFSMA_con_sbcape_063.txt.gz
CAPE
2086 1619 1319 1394 1351 1713 1711 1672 1458 1280 1259 1041 1058 979 886 703 773 549 472 893 1495 1598 1590 1136 1346 1523 1107 1634 1448 1526 1283 1333 885 571 895 704 765 454 298 676 565 415 267
1687 1310 1304 1003 1290 1434 1436 1351 1543 1275 878 509 523 776 865 1047 1334 1327 878 665 1453 1717 1521 1720 1820 1597 1393 1497 1720 1524 1195 1024 1594 1404 1024 1242 1189 1068 658 525 692 647 662
111 182 562 443 1167 1195 1459 1710 1301 882 772 723 731 601 346 733 801 1469 1683 1315 951 1268 1822 1608 1832 1676 1785 1942 1705 1806 1826 1638 1535 1606 1517 1067 1111 1342 1167 735 716 856 1072
133 79 234 370 476 831 1147 1079 969 569 429 405 426 422 461 636 975 1359 1456 1532 1395 1351 1464 1549 1760 1845 1803 1876 1861 1872 1775 1649 1624 1431 1362 1436 1317 1137 844 598 712 908 703
395 430 130 209 719 877 1022 939 751 542 464 507 418 229 311 411 816 800 1242 1543 1565 1436 1332 1321 1577 1694 1882 1484 1935 1803 1721 1592 1321 1497 1414 1271 1157 804 635 499 539 350 355
136 593 429 324 404 317 320 477 539 508 470 515 549 392 679 646 1094 1052 1128 1182 1330 1442 1481 1745 2348 1248 1795 1777 1831 1644 1379 1559 1492 1220 1455 1281 1124 702 626 500 504 600 669
350 252 163 309 286 267 442 675 669 672 721 759 153 730 830 777 963 734 264 700 1164 1284 1409 1699 1960 1624 1363 1170 1218 1629 1324 1475 1451 1087 1051 1037 987 518 214 260 373 319 352
188 184 92 130 718 407 486 538 697 765 845 45 123 241 782 323 428 235 224 337 909 1169 1355 1406 1539 1587 1650 1614 1375 642 1172 1274 1047 890 779 605 470 232 164 210 318 301 287
39 189 448 485 510 430 222 478 622 703 826 177 236 1116 788 201 302 194 178 156 193 230 209 442 666 685 796 1008 965 970 629 414 419 555 489 454 273 153 128 191 200 331 364
194 501 625 523 984 901 812 706 1263 1320 1442 336 731 950 652 339 319 237 161 85 63 112 309 104 112 186 370 652 585 400 230 199 427 533 303 197 114 110 145 193 239 183 216
283 226 162 264 520 406 246 141 412 200 496 1320 987 711 651 296 257 348 88 92 14 8 75 126 136 194 363 509 833 311 295 467 344 301 253 205 184 173 163 152 172 161 116
584 569 191 223 332 276 415 537 571 1209 1164 1016 987 937 765 623 510 699 393 144 29 8 7 7 11 196 289 404 343 113 91 33 37 78 128 150 101 64 37 30 10 5 65
514 690 804 270 347 379 381 460 845 980 982 1009 1114 1029 814 716 930 1340 1076 67 40 14 6 4 3 4 9 52 39 37 14 2 0 0 0 1 1 0 1 7 54 99 75
427 526 487 543 587 423 676 701 639 734 710 767 708 778 571 610 752 670 662 217 30 11 11 6 4 2 17 16 17 10 9 4 2 0 0 0 1 3 3 9 9 5 12
341 357 314 547 584 437 251 444 276 253 317 472 632 636 667 721 1173 828 595 442 78 27 9 15 6 5 11 7 8 7 15 5 5 1 2 3 4 4 2 12 5 0 0
380 321 390 532 333 188 177 212 205 154 124 213 211 450 498 499 829 921 559 541 348 33 8 7 11 6 7 8 11 8 7 5 3 3 3 3 5 3 6 11 12 8 6
306 245 250 394 159 112 84 81 125 79 70 84 96 174 253 307 610 856 730 861 51 0 5 9 8 6 4 5 4 4 10 11 2 2 3 0 1 4 3 4 4 5 4
267 318 329 359 209 51 1 14 19 19 40 53 65 191 216 178 30 530 404 386 13 0 2 2 4 5 4 10 5 2 1 2 0 1 3 1 1 1 1 0 0 0 0
332 289 306 305 178 0 0 0 0 1 1 0 22 59 30 151 12 56 428 32 0 1 1 2 6 6 6 7 5 0 1 0 0 0 1 1 0 0 0 0 0 0 0
312 367 298 309 157 13 0 0 0 1 4 4 6 2 2 5 72 7 79 10 5 3 4 4 3 6 7 7 7 2 0 0 0 0 0 0 0 0 0 0 0 0 0
367 236 108 249 139 50 0 0 0 0 2 5 8 4 5 1 0 1 6 7 8 3 3 3 3 5 8 6 7 9 3 0 0 0 0 0 0 0 0 0 0 0 0
266 84 2 61 145 45 0 0 0 0 0 3 6 2 1 0 0 0 0 0 2 5 5 5 4 4 5 7 4 1 2 0 2 0 3 0 0 0 0 0 0 0 0
311 70 19 0 12 99 0 0 0 0 0 0 1 6 0 0 0 2 1 0 0 0 0 14 7 11 8 8 5 4 2 2 15 3 5 12 0 5 0 0 0 0 0
672 612 1 0 0 0 0 0 0 0 0 0 0 0 3 1 1 3 6 8 8 7 3 1 16 8 1 4 0 3 2 12 32 2 11 38 17 26 21 10 0 0 0
607 309 41 0 0 0 0 0 0 0 0 0 0 0 0 1 0 0 0 2 5 1 0 0 0 0 0 0 2 17 34 45 70 50 4 63 65 75 58 68 13 0 0
549 48 11 51 0 0 0 0 0 26 2 0 0 0 0 0 0 0 0 0 2 1 0 0 0 0 0 0 0 24 39 47 54 86 44 46 78 81 67 50 68 15 0

GFSMA_con_sbcape_069.txt.gz
CAPE
1724 1321 2172 1811 1671 2338 1792 1620 1766 1693 2030 1615 1140 1864 539 465 400 941 1350 2495 2111 2158 1711 1647 1605 1803 1649 1922 1756 1414 1237 1447 1093 827 657 1051 1121 892 605 399 766 733 525
2034 1228 1293 692 1392 1581 1572 1464 1655 2404 1465 1606 1395 1937 1605 1285 466 397 505 1652 2149 1848 2138 2008 2319 1827 1736 1654 1945 1801 1602 1489 1842 1753 1566 1328 1463 1397 844 740 465 448 938
2550 2499 932 895 1324 1739 1820 1861 2106 1455 1435 1767 1141 1602 906 982 1115 1304 754 907 1442 1923 1958 2353 2344 2266 2294 1978 1952 1881 1881 1945 1924 1802 1741 1579 1371 1475 1227 913 885 640 223
1457 1457 1016 745 856 1470 1236 1170 1296 2337 1637 1470 1465 1327 1244 1588 1463 971 1383 1879 1706 969 1624 2052 2233 2039 2120 2328 2305 2421 2392 2067 1932 1871 1741 1624 1222 1116 1178 1314 754 105 24
1061 1489 647 441 793 1172 1311 1729 1527 1755 1655 1274 1255 1315 1308 894 1201 628 1015 1396 2228 1573 1526 1601 1855 1654 1926 1938 2352 2443 2510 2329 2010 1874 1844 1818 1448 923 823 272 416 33 0
648 425 601 537 631 457 726 1810 1374 1349 1236 1005 756 686 1579 1203 1098 1097 1045 1034 1765 1612 423 484 1214 1224 1784 2108 2025 1825 2029 2381 1864 1545 1533 1592 1478 1249 811 128 137 255 34
567 721 836 1901 1046 590 1193 1313 1802 1550 720 953 1465 519 475 609 413 778 1546 1586 1732 1704 1619 1305 3142 1297 1720 1893 1548 1282 1635 1661 1734 1662 1560 1222 884 1017 879 665 456 366 254
1334 1358 893 502 689 676 1179 801 787 749 673 1186 1053 1495 212 371 668 973 1997 1685 1250 1631 1341 1670 1700 1882 2320 2852 1781 1137 1637 1609 1547 1700 1354 963 728 589 627 556 386 206 184
921 1175 442 465 693 458 286 643 1257 1479 1982 2119 1612 985 343 499 197 1511 1217 757 734 868 1501 1257 1282 1518 1935 2000 1763 1453 707 652 980 1316 961 637 423 383 442 117 53 47 126
573 756 927 637 276 309 699 284 1591 2111 2126 1793 1530 810 635 553 105 172 780 777 560 676 1165 1420 804 1029 1405 1679 801 181 63 115 578 789 622 473 391 224 108 104 77 104 164
547 291 123 393 328 1001 1706 1651 1745 1908 2172 1887 1909 561 548 295 175 447 273 839 212 79 56 251 1074 1288 1266 1370 1121 222 392 583 742 888 560 297 211 198 149 152 149 143 131
1155 540 152 312 216 488 905 903 1079 1029 1299 1310 576 190 377 1344 1293 1045 1300 938 457 7 6 8 52 717 981 1010 283 129 120 95 164 277 363 362 280 197 153 170 182 204 205
1062 1008 878 755 446 642 441 624 1105 1108 1154 1135 1429 1197 913 1147 1250 1440 1629 1361 325 11 7 4 5 73 224 468 126 53 11 0 0 0 0 1 15 48 102 109 88 185 199
672 1305 1085 1158 1106 938 645 559 1283 1216 1251 1671 1203 1390 1689 2286 2292 2240 1938 1470 108 13 8 5 5 8 4 7 10 4 4 0 0 0 0 0 0 0 6 20 69 94 100
617 595 585 597 935 1123 1029 876 720 421 609 834 868 976 1107 1404 1029 2485 1451 1321 748 70 7 6 6 11 4 5 12 11 6 3 1 0 0 0 0 0 0 0 0 0 0
853 512 387 445 767 797 916 1153 1460 715 782 915 733 831 1038 890 1555 1947 1775 1536 1039 1201 35 5 9 9 5 3 11 13 7 2 2 0 0 0 0 0 0 0 0 0 0
898 753 580 1159 886 756 703 493 619 469 368 509 575 527 706 896 1124 1718 1985 768 1555 1577 366 8 6 8 10 6 14 19 2 5 3 2 0 0 0 0 0 0 0 0 0
935 817 582 423 945 645 341 374 255 151 226 212 315 388 570 761 868 1197 1581 1273 1407 1513 61 10 9 7 5 10 17 18 13 13 4 1 1 1 0 0 0 0 0 0 0
982 791 618 710 982 794 235 207 186 208 185 222 215 382 386 426 663 877 1132 1345 1225 1024 15 5 9 7 3 10 6 21 30 34 3 2 1 0 0 0 0 0 0 0 0
1161 1036 890 837 488 401 243 158 18 4 173 170 198 218 232 273 596 686 896 938 896 303 22 5 3 4 3 3 4 6 5 1 0 0 0 0 0 0 0 0 0 0 0
1182 1184 984 948 854 413 141 208 57 46 167 180 160 195 231 14 0 78 299 817 336 74 4 5 3 6 4 3 3 9 12 6 7 3 2 0 0 0 0 0 0 0 0
1511 1664 962 1034 635 644 0 0 0 140 128 179 216 136 143 0 0 0 0 0 67 193 6 5 5 4 5 2 8 2 4 5 2 1 5 0 0 0 0 0 0 0 0
2148 2035 1754 1163 790 447 0 0 0 0 101 88 109 127 69 0 8 9 0 0 0 0 46 13 6 5 6 6 12 0 1 14 3 0 0 1 2 10 2 0 0 0 0
1905 2074 1781 1340 1099 402 0 0 0 0 121 76 13 50 150 108 31 39 71 61 15 5 2 1 5 4 12 10 6 8 1 5 12 12 5 26 3 18 26 0 0 0 0
1830 1763 1549 1229 1115 561 0 0 0 0 64 209 91 15 19 76 0 0 113 141 66 43 0 0 0 0 5 0 8 2 6 9 5 26 20 64 2 34 28 0 0 0 0
1728 1246 1069 876 679 401 0 0 0 0 43 219 291 200 0 0 0 0 74 86 75 114 7 0 1 0 0 1 0 69 25 7 32 157 110 75 122 92 31 23 0 0 0

GFSMA_con_sbcape_072.txt.gz
CAPE
2109 1626 1755 1846 2075 2174 1351 1416 2135 1034 1274 1896 1548 1092 1230 1204 871 595 1382 2384 2307 2154 2310 1974 2154 1968 1895 1958 1870 1292 878 1064 1131 1032 455 756 1443 1257 804 259 298 799 806
2456 1997 2300 1276 2081 1602 1530 1778 1380 1824 1204 1769 2023 1832 1120 1061 1241 1176 1243 1759 2049 1980 2363 2354 2530 2477 2152 2052 1960 1879 1433 1272 1753 1713 1542 1336 1296 1521 1408 879 701 740 831
2473 2491 2455 2001 1553 1757 2510 1198 1602 2164 1561 1763 1788 1320 1430 1027 929 845 940 1308 1609 2159 1962 1871 2348 2439 2385 2143 2088 2156 2028 2017 1812 1876 1960 1737 1633 1459 1664 1283 974 935 276
2332 2461 1492 1131 1827 1550 2414 2353 1346 1958 2197 1650 1352 1677 1409 1303 1235 1179 1344 954 1421 1054 1557 2047 1893 1372 1615 1740 1982 2273 2088 1978 1927 1917 1917 1915 1667 1477 1282 1344 1408 978 94
2019 2274 1701 1872 1655 1900 2018 1853 2130 2158 1645 1275 1345 639 879 1696 1012 780 908 1105 996 1603 1048 1681 1433 695 748 1103 1784 2062 2180 2119 1885 1943 1962 1829 1686 1489 1029 956 415 455 132
1864 1486 1426 1339 1095 622 1416 883 1446 1556 1848 1731 1086 683 1390 531 1281 862 1130 671 1677 1638 1146 1204 101 151 624 184 595 1390 1711 2285 1492 1836 1918 1705 1391 1367 898 772 246 219 380
1062 1130 819 1411 1063 555 272 1074 1451 679 1457 1283 386 757 826 697 1158 840 663 1362 763 1063 297 1439 782 672 312 75 36 974 1469 1838 1729 1573 1626 1345 1099 971 1097 829 353 264 340
455 738 877 703 1501 1288 1246 971 987 988 1183 643 1049 863 730 848 767 815 1347 964 833 922 983 1217 1132 1034 1034 1054 1085 1080 1030 976 1004 1676 1384 951 846 743 683 725 458 324 293
816 460 486 1031 887 787 537 626 719 955 623 484 1112 656 429 191 821 1001 326 545 603 819 1355 964 1049 1206 1254 1170 1498 1300 1451 1168 1596 1632 1420 1041 605 318 308 355 199 90 77
996 599 543 690 800 669 356 156 70 110 282 375 803 640 724 537 179 37 72 10 342 673 667 760 721 749 660 761 470 171 95 94 663 954 904 1040 599 518 343 142 75 52 42
912 764 355 681 634 670 446 441 412 615 426 612 569 626 594 473 153 95 41 61 97 10 0 0 98 678 633 546 361 176 372 325 710 921 829 581 346 234 194 127 129 145 179
1184 853 481 393 224 158 30 224 347 244 392 717 703 110 51 165 138 103 152 293 188 3 4 4 2 211 221 105 100 104 149 238 204 290 407 480 386 268 194 185 156 191 205
1855 1093 640 477 345 328 494 198 507 542 505 597 277 162 102 57 111 482 353 449 189 5 5 2 1 19 39 98 35 12 6 0 1 1 6 19 62 118 89 107 155 237 223
1139 1254 1228 1634 1258 1100 921 849 685 531 571 639 958 947 791 1260 1107 735 585 432 148 5 6 2 1 2 0 1 6 3 1 0 0 0 0 0 0 0 27 92 163 203 157
1253 1445 1461 1287 1110 1599 819 847 662 422 257 277 303 240 496 698 831 492 397 461 103 2 4 4 2 4 2 9 13 3 1 1 0 0 0 0 0 0 0 0 0 0 0
1637 1435 906 1231 1296 1406 1090 876 826 677 574 430 402 412 494 663 1036 1289 1072 860 438 218 4 2 4 4 2 2 9 0 0 1 0 0 0 0 0 0 0 0 0 0 0
1758 1335 639 1210 1093 1231 1129 1175 937 818 549 716 733 506 547 760 779 1322 1127 807 559 242 17 4 3 5 3 0 6 0 0 0 0 0 2 0 0 0 0 0 0 0 0
1681 1674 1379 1009 978 1144 1090 468 398 587 454 427 276 501 571 662 701 594 525 587 517 235 3 4 1 1 0 8 14 0 8 0 0 1 0 0 0 0 0 0 0 0 0
1861 1493 1483 1247 1077 1100 648 617 434 495 492 506 263 241 585 593 604 716 702 838 504 39 1 3 2 2 1 0 0 1 3 0 0 2 0 0 0 0 0 0 0 0 0
2114 1101 1154 1044 818 899 726 734 330 157 426 429 162 258 472 669 762 894 949 667 331 92 2 3 1 1 0 0 0 0 0 0 0 0 0 0 0 0 0 0 0 0 0
1707 1591 1252 1112 1021 633 50 330 266 226 334 405 232 293 112 3 0 0 261 582 342 8 1 2 2 1 1 0 0 0 0 0 0 0 0 0 0 0 0 0 0 0 0
2262 2091 1711 1159 1211 1333 0 0 0 14 158 264 121 190 5 0 0 0 0 0 250 75 1 2 3 1 1 0 0 0 0 3 0 0 0 0 0 0 0 0 0 0 0
2655 2442 2111 1393 1190 1204 0 0 0 0 0 89 138 225 139 97 77 8 0 0 0 0 14 0 0 0 0 0 0 0 0 0 1 0 0 0 0 0 0 0 0 0 0
2725 2550 2209 1974 1701 29 0 0 0 0 0 19 69 254 160 141 38 209 149 126 61 11 0 5 17 0 0 0 0 0 0 0 0 0 0 0 0 0 0 0 0 0 0
2684 2268 2186 1966 1889 225 0 0 0 0 0 0 14 32 131 190 0 0 83 246 104 0 0 0 0 1 0 0 0 0 0 0 0 0 0 0 16 0 0 0 0 0 0
2414 1881 1951 1637 1032 805 0 0 0 0 0 3 4 60 9 0 0 0 14 124 196 183 0 0 0 0 0 0 0 0 0 0 0 6 0 0 31 0 2 0 0 0 0

GFSMA_con_sbcape_075.txt.gz
CAPE
848 825 682 859 742 727 865 681 729 578 580 665 693 668 332 320 769 369 634 2067 1985 1925 1809 1744 2001 1652 1553 1833 1793 1369 631 857 1059 1240 857 594 992 1064 661 251 69 301 458
1032 888 719 611 616 1129 663 617 486 435 680 777 646 543 454 632 494 522 728 1363 2169 1924 1786 2253 2362 2301 2084 1721 1672 1737 1323 1005 1610 1799 1675 1199 1376 1579 1522 891 663 501 787
765 991 754 577 873 850 788 627 728 780 609 675 576 569 826 679 408 465 768 732 1737 2175 2004 1751 2107 2305 2252 2031 1830 1790 1652 1767 1760 1916 1766 1634 1580 1491 1721 1603 971 1206 715
778 631 677 362 624 888 824 402 572 663 410 695 569 676 594 568 797 677 649 779 954 756 1962 1994 2010 2149 2260 2267 1997 1917 1741 1833 1600 1699 2000 1932 1801 1481 1546 1510 1537 1489 428
970 652 597 557 762 501 863 651 544 621 620 272 343 462 668 805 541 630 595 602 688 752 527 1095 1584 1729 1268 1162 985 1189 1623 1797 1557 1490 1646 1924 1767 1694 1509 1149 1253 1169 433
626 1163 733 448 232 108 213 438 266 423 617 500 702 452 281 295 308 576 250 355 668 688 522 408 346 480 932 326 832 466 836 1237 1486 1380 1606 1848 1812 1612 1468 1066 795 521 239
555 528 411 349 283 182 23 40 329 360 307 134 36 24 105 337 47 186 168 262 179 594 473 120 94 39 574 38 4 178 216 815 1564 1398 1538 1273 1469 1201 1166 982 683 409 231
362 551 363 211 558 493 169 157 276 186 219 96 1 41 49 1 151 193 222 156 172 455 224 98 484 467 143 358 17 166 723 374 1150 1211 1051 1269 1171 1040 900 861 768 550 356
463 310 383 198 296 571 241 156 67 88 27 51 143 34 31 2 7 80 8 0 28 245 245 165 287 395 490 346 588 534 403 330 1309 1182 1559 1038 832 614 512 563 471 509 282
423 187 220 217 269 213 156 158 115 96 103 109 46 146 67 9 0 0 1 0 42 66 12 11 67 168 232 289 225 187 198 106 502 1112 1511 1321 665 481 407 369 185 98 72
436 434 185 181 277 386 226 187 134 79 2 5 16 84 123 78 14 0 0 0 65 0 0 0 0 61 121 88 5 243 238 154 557 825 951 760 581 481 327 196 116 97 78
500 356 57 65 272 319 174 98 104 119 129 87 116 78 27 7 1 3 13 21 43 1 1 0 0 20 23 19 88 210 313 275 224 267 334 402 489 379 335 309 239 241 284
467 460 286 29 0 0 0 47 84 220 65 21 13 64 33 24 26 31 46 51 41 3 1 0 0 1 17 0 9 32 54 19 28 58 98 137 214 363 421 363 306 301 297
417 664 412 39 43 14 258 219 176 232 257 239 283 81 80 77 55 4 40 48 45 2 2 0 0 0 0 0 7 2 0 0 0 0 6 0 0 15 87 170 251 269 266
521 818 717 868 674 648 611 396 205 157 120 95 107 135 108 132 235 198 142 65 48 1 1 1 0 0 1 2 0 0 0 0 0 0 0 0 0 0 0 0 8 9 1
729 627 559 731 553 448 498 318 230 149 71 62 125 144 167 203 226 225 291 96 79 1 1 2 0 0 0 3 1 0 0 0 0 0 0 0 0 0 0 0 0 0 0
517 375 342 491 466 370 353 201 249 225 190 185 276 287 261 280 212 196 352 290 200 56 0 7 0 0 0 1 0 0 0 0 0 1 0 0 0 0 0 0 0 0 0
613 527 223 385 407 423 347 314 187 163 135 146 154 167 133 310 216 118 160 171 193 54 0 1 2 1 0 0 0 0 0 0 0 2 0 0 0 0 0 0 0 0 0
607 638 373 268 255 256 204 181 37 0 29 72 115 84 43 170 209 216 221 214 97 0 2 2 3 2 0 0 0 0 0 0 0 5 1 0 0 0 0 0 0 0 0
867 725 476 416 393 192 163 124 56 0 0 25 59 4 135 128 80 175 264 165 1 2 3 3 4 3 0 0 0 0 0 0 0 0 0 0 0 0 0 0 0 0 0
982 870 677 358 187 83 0 38 14 0 0 8 15 36 0 0 0 0 77 152 45 0 1 1 1 1 1 0 0 0 0 0 0 0 0 0 0 0 0 0 0 0 0
902 591 406 373 125 0 0 0 0 0 0 14 0 0 0 0 0 0 0 102 0 0 0 0 1 0 0 0 0 0 0 0 0 0 0 0 0 0 0 0 0 0 0
908 748 677 503 330 0 0 0 0 0 0 3 9 6 1 12 0 0 0 0 0 6 0 0 0 0 0 0 0 0 0 0 0 0 0 0 0 0 0 0 0 0 0
975 1240 968 702 380 0 0 0 0 0 0 0 0 1 1 1 3 0 0 0 0 30 22 10 0 0 0 0 0 0 0 0 0 0 0 0 0 0 0 0 0 0 0
1332 1323 1105 947 523 0 0 0 0 0 0 0 2 0 6 0 0 0 20 0 0 0 0 0 16 0 0 0 0 0 0 0 0 0 0 0 0 0 0 0 0 0 0
1269 1089 854 679 492 36 0 0 0 0 0 0 0 0 0 0 0 0 0 0 2 1 0 0 0 0 0 0 0 0 0 0 0 0 0 0 0 0 0 0 0 0 0